Weather in Yakimanskaya Sloboda

Russia / Vladimir Oblast     55°35′41″N   42°02′32″E
temp.,
°C
wind,
m/s
gust,
m/s
humid.,
%
clouds,
%
prec.,
mm/h
press.,
hPa
HPBL,
m
4 march, thu
thu400:00−1w6129299 0.1 1006618
03:00−1wsw61291100 0.2 1003648
06:00−1sw71395100 0.2 1000652
09:00+1wsw81598100 0.9 997796
12:00+1wsw81595100 0.2 997979
15:00+1wnw5979100 1.2 998979
18:00−2wnw3784100 0.0 999184
21:00−5nw2389100 0.0 100045
5 march, fri
fri500:00−7nnw2391100 0.0 100022
03:00−10nnw239398 0.0 100222
06:00−11nw239381 0.0 100421
09:00−9wnw249375 0.0 1006160
12:00−4w348555 0.0 1006556
15:00−3w468376 0.3 1008857
18:00−6wnw3590100 0.4 1009103
21:00−9wnw478880 0.4 1012105
6 march, sat
sat600:00−12nw349526 0.0 101456
03:00−14nw239037 0.0 101621
06:00−16nw12840 0.0 101620
09:00−13nw00800 0.0 101741
12:00−8n007639 0.0 1016308
15:00−7wsw017550 0.0 1015426
18:00−10w119386 0.1 101522
21:00−11nnw239290 0.2 101553
7 march, sun
sun700:00−15w228928 0.0 101420
03:00−15sw349014 0.0 101246
06:00−14ssw5119230 0.0 1010225
09:00−9ssw8158464 0.0 1006577
12:00−5ssw91587100 0.1 1002958
15:00−4sw91592100 0.8 9971245
18:00−4sw81493100 1.0 995891
21:00−8w61678100 1.6 997866
8 march, mon
mon800:00−12wsw410812 0.0 998165
03:00−11sw5128334 0.0 999348
06:00−12ssw51089100 0.0 997241
09:00−9ssw6109195 0.0 995470
12:00−5wsw4791100 0.6 995694
15:00−6w71088100 1.1 997965
18:00−8wnw91588100 0.3 1001882
21:00−11wnw5138999 0.3 1005428